Weather History for KBOI - February, 2014

Change the Weather History Date:

Tuesday, February 4, 2014

  Actual Average Record
Temperature  
Mean Temperature 25 °F 34 °F  
Max Temperature 29 °F 41 °F 62 °F (1963)
Min Temperature 20 °F 27 °F -14 °F (1989)
Degree Days  
Heating Degree Days 40 31  
Month to date heating degree days 133 125  
Since 1 July heating degree days 3754 3486  
Cooling Degree Days 0 0  
Month to date cooling degree days 0 0  
Year to date cooling degree days 0 0  
Moisture  
Dew Point 17 °F    
Average Humidity 71    
Maximum Humidity 92    
Minimum Humidity 50    
Precipitation  
Precipitation 0.00 in 0.04 in 1.26 in (1907)
Month to date precipitation 0.04 0.14  
Year to date precipitation 0.85 1.38  
Snow  
Snow 0.00 in 0.10 in 3.90 in (1996)
Month to date snowfall 0.5 0.5  
Since 1 July snowfall 10.7 15.3  
Snow Depth T in    
Sea Level Pressure  
Sea Level Pressure 30.14 in    
Wind  
Wind Speed 5 mph (NW)    
Max Wind Speed 14 mph    
Max Gust Speed 17 mph    
Visibility 10 miles    
Events      
T = Trace of Precipitation, MM = Missing Value Source: NWS Daily Summary

Daily Weather History Graph

Daily Weather History Graph

Search for Another Location

Airport or City:

Trip Planner

Search our weather history database for the weather conditions in past years. The results will help you decide how hot, cold, wet, or windy it might be!

Date:

Astronomy

Feb. 04, 2014 Rise Set
Actual Time 7:57 AM MST 6:00 PM MST
Civil Twilight 7:27 AM MST 6:30 PM MST
Nautical Twilight 6:53 AM MST 7:04 PM MST
Astronomical Twilight 6:20 AM MST 7:38 PM MST
Moon 10:26 AM MST (2/4) No Moon Set
Length of Visible Light 11h 03m
Length of Day
10h 02m
Waxing Crescent, 29% of the Moon is Illuminated
Feb 4
Waxing Crescent
Feb 6
First Quarter
Feb 14
Full
Feb 22
Last Quarter
Mar 1
New

Hourly Weather History & Observations

Time (MST) Temp. Windchill Dew Point Humidity Pressure Visibility Wind Dir Wind Speed Gust Speed Precip Events Conditions
12:53 AM 27.0 °F 20.5 °F 24.1 °F 89% 30.01 in 10.0 mi NW 5.8 mph - N/A   Overcast
1:06 AM 26.6 °F 21.2 °F 24.8 °F 93% 29.95 in 10.0 mi NW 4.6 mph - N/A   Overcast
1:26 AM 26.6 °F 20.0 °F 24.8 °F 93% 29.95 in 10.0 mi NW 5.8 mph - N/A   Mostly Cloudy
1:39 AM 26.6 °F - 24.8 °F 93% 29.96 in 10.0 mi Calm Calm - N/A   Mostly Cloudy
1:53 AM 25.0 °F - 23.0 °F 92% 30.02 in 10.0 mi Calm Calm - N/A   Mostly Cloudy
2:53 AM 24.1 °F 18.2 °F 21.9 °F 91% 30.04 in 10.0 mi West 4.6 mph - N/A   Partly Cloudy
3:53 AM 21.9 °F 17.2 °F 19.9 °F 92% 30.04 in 10.0 mi West 3.5 mph - N/A   Clear
4:53 AM 21.0 °F 16.2 °F 18.0 °F 88% 30.07 in 10.0 mi NNW 3.5 mph - N/A   Mostly Cloudy
5:53 AM 21.9 °F - 18.0 °F 85% 30.08 in 10.0 mi Calm Calm - N/A   Overcast
6:53 AM 21.9 °F 13.4 °F 18.0 °F 85% 30.09 in 10.0 mi WNW 6.9 mph - N/A   Overcast
7:53 AM 21.0 °F 13.4 °F 16.0 °F 81% 30.11 in 10.0 mi WNW 5.8 mph - N/A   Clear
8:53 AM 21.0 °F 16.2 °F 16.0 °F 81% 30.14 in 10.0 mi NW 3.5 mph - N/A   Clear
9:53 AM 23.0 °F 15.8 °F 15.1 °F 72% 30.17 in 10.0 mi WNW 5.8 mph - N/A   Clear
10:53 AM 25.0 °F 18.1 °F 15.1 °F 66% 30.19 in 10.0 mi West 5.8 mph - N/A   Clear
11:53 AM 26.1 °F 16.2 °F 14.0 °F 60% 30.19 in 10.0 mi WNW 10.4 mph - N/A   Clear
12:53 PM 28.0 °F 19.3 °F 14.0 °F 56% 30.18 in 10.0 mi WNW 9.2 mph - N/A   Clear
1:53 PM 28.0 °F 18.6 °F 12.9 °F 53% 30.17 in 10.0 mi NW 10.4 mph - N/A   Clear
2:53 PM 28.9 °F 19.2 °F 15.1 °F 56% 30.17 in 10.0 mi NW 11.5 mph - N/A   Overcast
3:53 PM 28.0 °F 22.8 °F 14.0 °F 56% 30.18 in 10.0 mi WNW 4.6 mph - N/A   Clear
4:53 PM 28.0 °F 20.0 °F 14.0 °F 56% 30.18 in 10.0 mi NW 8.1 mph - N/A   Overcast
5:53 PM 26.1 °F 18.4 °F 14.0 °F 60% 30.20 in 10.0 mi NW 6.9 mph - N/A   Overcast
6:53 PM 26.1 °F 20.5 °F 10.9 °F 53% 30.21 in 10.0 mi NW 4.6 mph - N/A   Overcast
7:53 PM 25.0 °F 20.7 °F 12.9 °F 60% 30.22 in 10.0 mi NW 3.5 mph - N/A   Overcast
8:53 PM 25.0 °F - 14.0 °F 63% 30.24 in 10.0 mi Calm Calm - N/A   Overcast
9:53 PM 24.1 °F 19.7 °F 15.1 °F 69% 30.25 in 10.0 mi NE 3.5 mph - N/A   Overcast
10:53 PM 25.0 °F - 14.0 °F 63% 30.25 in 10.0 mi Calm Calm - N/A   Overcast
11:53 PM 25.0 °F - 14.0 °F 63% 30.26 in 10.0 mi Calm Calm - N/A   Overcast